Flag for Germany Weather past 2 weeks in Oer-Erkenschwick, North Rhine-Westphalia, Germany

Now
34 °F

Clear.


Feels Like: 29 °F
Forecast: 31 / 46 °F
Wind: 6 mph from West

Location: Dortmund / Wickede

Current Time: Feb 28, 2015 at 12:32:14 AM

Latest Report: Feb 27, 2015 at 10:50 PM


Visibility: 10 mi

Pressure: 30.12 "Hg

Humidity: 81%

Dew point: 28 °F

Location of Oer-ErkenschwickLocation

Historic Weather in Oer-Erkenschwick — Graph

°F

Oer-Erkenschwick temperature yesterday

Maximum temperature yesterday: 43 °F (at 12:50 PM)
Minimum temperature yesterday: 34 °F (at 10:20 PM)
Average temperature yesterday: 40 °F

Past Weeks' High & Low Weather Summary

 TemperatureHumidityPressure
High54 °F (Feb 14, 1:20 PM)100% (Feb 18, 10:20 AM)30.74 "Hg (Feb 18, 10:20 AM)
Low27 °F (Feb 16, 5:50 AM)43% (Feb 13, 2:50 PM)29.33 "Hg (Feb 21, 5:20 AM)
Average39 °F76%29.96 "Hg
* Reported Feb 12 10:20 PM — Feb 27 10:50 PM, Oer-Erkenschwick, Weather by CustomWeather, © 2015

Note: Actual official high and low records may vary slightly from our data, if they occured in-between our weather recording intervals... More about our weather records

Advertising

Oer-Erkenschwick weather history for previous 24 hours

 ConditionsComfort  
Time TempWeatherWind HumidityBarometerVisibility
10:50 PM
Fri, Feb 27
34 °FClear.6 mph81%30.12 "Hg10 mi
10:20 PM34 °FClear.5 mph81%30.12 "Hg10 mi
9:50 PM36 °FPassing clouds.5 mph75%30.12 "HgN/A
9:20 PM36 °FPassing clouds.3 mph75%30.12 "HgN/A
8:50 PM36 °FPassing clouds.5 mph75%30.09 "HgN/A
8:20 PM37 °FPassing clouds.3 mph75%30.09 "HgN/A
7:50 PM37 °FPassing clouds.5 mph75%30.09 "HgN/A
7:20 PM37 °FClear.3 mph75%30.07 "Hg10 mi
6:50 PM39 °FPassing clouds.5 mph70%30.07 "HgN/A
6:20 PM41 °FPassing clouds.5 mph66%30.04 "HgN/A
5:50 PM43 °FPassing clouds.7 mph61%30.04 "HgN/A
5:20 PM43 °FScattered clouds.5 mph61%30.01 "HgN/A
4:50 PM43 °FScattered clouds.9 mph66%30.01 "HgN/A
4:20 PM43 °FPartly sunny.8 mph66%30.01 "HgN/A
3:50 PM43 °FBroken clouds.12 mph61%30.01 "HgN/A
3:20 PM43 °FPartly sunny.12 mph66%29.98 "HgN/A
2:50 PM43 °FBroken clouds.10 mph66%29.98 "HgN/A
2:20 PM43 °FSprinkles. Partly sunny.12 mph71%29.98 "HgN/A
1:50 PM43 °FPartly sunny.8 mph71%29.95 "HgN/A
1:20 PM41 °FBroken clouds.10 mph76%29.95 "HgN/A
12:50 PM43 °FPartly sunny.7 mph71%29.95 "HgN/A
12:20 PM41 °FPartly sunny.8 mph81%29.95 "HgN/A
11:50 AM41 °FPartly sunny.7 mph81%29.95 "HgN/A
11:20 AM41 °FPartly sunny.7 mph81%29.92 "HgN/A
10:50 AM41 °FPartly sunny.7 mph81%29.92 "HgN/A
10:20 AM39 °FLight rain. Partly sunny.6 mph93%29.92 "HgN/A
9:50 AM39 °FLight rain. Partly sunny.6 mph87%29.89 "HgN/A
9:20 AM39 °FLight rain. Partly sunny.7 mph87%29.89 "HgN/A
8:50 AM39 °FLight rain. Partly sunny.9 mph87%29.86 "HgN/A
8:20 AM39 °FLight rain. Partly sunny.12 mph87%29.86 "HgN/A
7:50 AM39 °FLight rain. Partly sunny.12 mph87%29.83 "Hg6 mi
7:20 AM39 °FLight rain. Partly sunny.10 mph93%29.80 "Hg4 mi
6:50 AM41 °FLight rain. Passing clouds.8 mph87%29.80 "Hg5 mi
6:20 AM41 °FLight rain. Passing clouds.5 mph93%29.77 "Hg5 mi
5:50 AM41 °FLight rain. Passing clouds.5 mph93%29.77 "HgN/A
5:20 AM41 °FLight rain. Passing clouds.2 mph87%29.77 "HgN/A
Weather by CustomWeather, © 2015

See weather overviewHow to use our weather pages